Wind_Speed
17 17 18 18 19 19 20 21 21 22 22 22 22 22 23 23 24 25 26 27 29 30 32 33 33 34 34 35 35 36 36 37 37 39 41 42 43 43
19 20 20 20 20 21 22 22 23 24 25 25 24 24 24 25 26 27 28 29 30 31 33 34 36 37 38 38 39 39 39 39 40 40 41 43 43 44
23 23 23 23 23 24 24 25 25 25 26 27 27 27 27 26 26 28 29 30 31 32 33 35 37 38 39 41 41 42 43 43 43 43 43 44 45 44
25 25 26 26 26 26 26 27 27 27 27 28 28 29 29 28 28 29 30 30 32 33 34 35 37 38 40 41 43 44 45 46 46 46 45 45 46 47
28 28 28 28 28 28 28 28 28 28 29 29 30 30 30 30 30 30 31 31 32 33 34 35 37 38 40 42 43 45 46 48 49 49 49 48 48 48
30 29 30 30 31 31 31 31 31 31 31 31 32 32 32 32 32 32 32 32 32 33 34 35 36 38 40 42 43 45 46 48 50 51 52 52 51 50
32 32 32 32 33 33 34 33 33 33 34 33 33 34 35 35 34 34 34 34 34 35 35 36 37 38 40 42 43 45 46 48 49 51 53 54 54 54
34 34 35 35 35 36 36 36 36 36 36 36 36 36 37 37 37 37 36 36 36 36 37 38 38 39 40 41 43 44 45 47 49 51 53 54 55 56
37 38 38 39 38 39 39 39 39 39 39 39 39 39 39 39 40 39 38 37 37 38 39 39 40 40 40 41 42 44 45 46 48 50 52 54 55 57
41 42 42 42 42 43 43 42 42 42 43 43 42 42 42 42 42 42 41 40 39 40 40 40 40 41 41 41 41 43 44 45 46 48 50 52 55 57
46 46 46 46 46 47 47 46 46 45 45 45 45 44 44 44 44 44 43 42 41 41 41 41 41 42 41 41 42 42 43 45 45 46 48 50 52 55
50 50 50 49 50 51 51 51 49 48 49 49 48 47 46 46 46 45 45 44 43 42 42 42 42 42 41 41 42 43 43 44 44 45 46 48 50 52
54 53 53 53 53 54 55 54 53 52 52 52 51 49 49 48 48 47 47 46 45 44 43 43 42 42 43 42 42 42 43 44 44 44 45 46 48 50
57 57 57 57 57 57 58 57 57 57 56 55 54 53 52 51 50 49 49 48 47 45 44 44 43 43 43 42 42 42 42 43 43 43 44 44 45 47
62 62 62 62 62 61 61 60 60 60 59 58 57 56 54 53 52 51 50 49 48 47 45 45 45 44 44 42 42 42 42 42 42 42 43 43 44 45
66 66 66 65 65 65 65 64 63 63 62 61 60 59 57 55 54 53 52 51 50 48 46 46 45 45 44 43 42 41 41 41 42 42 42 43 43 44
70 70 69 69 69 68 68 67 66 65 64 63 62 60 58 57 56 54 53 52 51 49 47 46 45 44 43 42 41 40 40 41 41 42 42 42 42 43
71 71 70 69 69 68 68 67 66 66 64 63 61 60 58 57 55 53 52 52 51 49 47 46 45 44 43 41 41 40 40 40 40 41 41 41 40 41
68 67 66 65 64 64 63 62 62 62 61 60 58 57 57 56 55 54 52 51 49 48 46 45 44 43 42 40 40 40 39 39 39 40 40 40 40 40
62 61 60 59 58 57 55 55 55 55 55 54 54 54 54 53 52 51 51 49 48 46 45 44 42 42 41 40 39 39 39 38 39 39 39 40 40 40
55 55 53 52 50 49 48 48 47 47 47 48 48 47 47 48 48 47 47 46 45 44 43 41 40 40 40 39 38 37 38 38 38 38 38 39 40 40
47 46 45 44 42 41 41 41 41 40 39 39 39 40 40 41 41 41 43 43 42 40 39 38 38 38 38 37 37 36 37 37 37 38 38 38 39 40
39 37 37 36 35 35 34 33 32 31 30 30 31 32 33 34 35 35 36 37 37 36 35 35 36 37 37 37 36 36 36 36 37 38 37 38 39 40
Wind_Direction
292 294 295 297 297 298 299 298 297 295 292 290 287 284 283 281 279 276 273 271 268 266 264 262 261 259 256 254 253 251 250 249 246 245 245 244 242 241
290 292 293 293 293 293 294 295 295 293 291 290 289 287 284 282 280 278 276 273 271 269 267 264 262 260 258 255 254 253 251 250 248 247 246 245 244 243
288 290 291 292 292 293 293 293 292 292 291 290 289 288 287 285 282 280 279 277 274 272 270 267 264 262 260 258 256 254 252 251 249 248 248 247 246 244
288 289 290 291 291 292 292 292 291 291 290 289 289 288 287 286 285 283 280 279 277 275 272 270 267 264 261 260 258 255 253 252 251 249 249 248 247 245
287 288 289 289 289 290 291 291 290 289 288 288 289 289 287 286 285 284 282 280 279 278 276 273 270 267 264 262 260 258 256 253 251 250 249 248 246 246
286 287 288 288 289 289 290 290 289 288 287 287 288 287 287 286 285 284 283 282 281 280 279 276 273 270 267 265 262 260 258 256 253 251 249 248 247 246
286 286 288 288 288 288 288 289 289 288 287 287 287 287 286 285 285 284 284 283 283 282 281 279 276 273 270 268 266 263 261 258 256 253 251 249 247 246
285 286 287 288 288 287 287 287 288 287 287 287 286 287 286 285 285 285 284 283 283 283 283 281 279 276 273 270 267 265 263 260 258 255 253 250 248 246
284 284 285 286 286 286 285 285 285 286 286 286 286 286 286 285 284 284 283 283 283 284 283 282 280 278 275 272 269 266 264 263 260 257 254 252 249 247
285 285 284 284 285 285 284 284 284 284 285 285 285 285 284 284 284 283 283 283 283 284 284 282 280 278 276 274 271 267 265 263 262 259 256 253 250 248
285 285 284 283 283 284 284 283 283 283 283 283 283 283 283 283 283 282 282 282 283 283 283 282 279 277 276 275 273 269 266 264 262 259 256 254 251 249
284 284 283 282 283 283 282 282 282 282 282 283 282 281 281 281 281 281 281 281 282 282 282 281 279 278 276 275 273 270 267 265 262 260 257 254 251 249
283 283 282 281 281 281 281 281 281 280 280 281 281 280 280 280 280 280 279 279 280 280 280 280 279 277 276 275 273 271 269 266 263 260 257 254 252 250
284 283 282 281 281 280 280 280 279 278 279 279 278 278 278 277 278 278 277 277 277 278 278 278 277 276 276 275 273 271 270 268 265 261 257 255 253 251
283 282 281 281 280 279 279 278 277 276 277 276 276 277 276 276 276 276 275 274 275 275 276 276 276 275 274 274 273 271 270 268 265 261 258 255 253 251
282 282 281 280 279 279 278 277 276 275 274 274 275 274 274 273 273 274 273 272 272 273 274 274 274 274 273 272 272 271 269 267 264 261 259 256 253 251
282 281 280 279 278 277 276 275 275 274 273 273 272 272 271 270 271 270 269 269 270 271 272 272 272 272 271 271 271 269 268 266 264 261 259 257 254 252
283 282 280 279 278 276 275 274 273 272 272 271 270 269 268 268 268 266 266 267 268 269 270 270 270 270 269 269 269 268 266 265 263 261 259 257 255 253
284 284 282 281 280 278 276 274 272 271 270 269 267 266 266 264 263 263 263 263 264 265 266 266 267 268 268 268 267 266 265 264 263 261 259 257 255 253
286 285 284 283 281 279 276 274 272 270 268 267 265 264 262 261 260 260 260 259 260 261 262 263 265 266 266 266 265 264 263 262 262 260 258 257 255 253
288 287 286 284 282 279 276 274 272 270 267 265 263 261 260 258 258 258 257 256 257 258 259 261 262 263 264 265 264 263 263 262 260 259 258 256 255 254
291 288 286 284 282 279 276 274 272 269 265 262 260 257 257 256 256 256 255 255 255 256 258 259 260 261 263 264 263 262 262 262 260 258 257 256 255 254
295 292 289 286 282 279 276 273 269 267 262 258 256 254 254 254 254 253 252 252 253 255 256 257 259 260 261 262 262 262 261 261 260 259 258 257 255 253
Height
5859 5858 5856 5855 5853 5851 5849 5847 5846 5844 5843 5841 5840 5839 5838 5837 5836 5835 5834 5834 5834 5834 5834 5835 5836 5837 5838 5840 5842 5843 5846 5848 5850 5853 5856 5859 5862 5865
5854 5853 5851 5850 5848 5846 5844 5842 5840 5838 5836 5835 5834 5833 5831 5830 5829 5828 5827 5826 5826 5826 5826 5826 5827 5828 5829 5831 5832 5834 5836 5838 5841 5844 5846 5849 5852 5855
5849 5847 5846 5844 5842 5840 5838 5836 5834 5832 5830 5828 5826 5825 5824 5822 5821 5820 5819 5818 5817 5817 5816 5816 5817 5817 5818 5820 5822 5824 5826 5828 5831 5833 5836 5839 5842 5845
5842 5841 5839 5837 5835 5834 5832 5829 5827 5825 5823 5821 5819 5817 5816 5814 5813 5812 5810 5809 5808 5808 5807 5806 5806 5807 5807 5809 5810 5812 5814 5817 5819 5822 5825 5828 5831 5834
5835 5833 5832 5830 5828 5826 5824 5822 5820 5818 5815 5813 5811 5809 5807 5806 5804 5803 5802 5800 5799 5798 5797 5796 5796 5796 5796 5797 5798 5800 5802 5805 5807 5810 5812 5816 5819 5822
5827 5825 5823 5821 5819 5817 5815 5813 5811 5809 5807 5805 5802 5800 5798 5796 5795 5794 5792 5791 5789 5787 5786 5785 5785 5784 5784 5785 5786 5787 5789 5791 5793 5796 5799 5803 5806 5810
5818 5816 5814 5812 5810 5808 5806 5803 5801 5799 5797 5795 5793 5791 5788 5786 5785 5783 5782 5780 5779 5777 5776 5774 5773 5773 5772 5772 5773 5774 5775 5777 5779 5782 5785 5788 5792 5796
5808 5806 5804 5802 5800 5798 5795 5793 5791 5789 5786 5785 5783 5781 5778 5776 5774 5773 5771 5770 5768 5766 5764 5763 5761 5761 5760 5760 5760 5761 5761 5763 5765 5767 5770 5774 5777 5782
5798 5795 5793 5791 5789 5786 5784 5782 5780 5777 5775 5773 5772 5769 5767 5765 5763 5761 5760 5758 5756 5754 5752 5751 5749 5748 5747 5747 5747 5748 5748 5749 5750 5753 5755 5758 5762 5766
5786 5783 5781 5779 5776 5774 5771 5770 5768 5765 5763 5761 5760 5758 5755 5753 5750 5749 5747 5746 5744 5742 5740 5739 5737 5735 5734 5734 5734 5734 5734 5735 5736 5738 5740 5743 5747 5751
5773 5770 5768 5766 5764 5760 5757 5756 5754 5752 5750 5748 5746 5745 5742 5740 5738 5736 5735 5733 5732 5730 5727 5726 5724 5722 5722 5721 5720 5721 5721 5721 5723 5724 5726 5729 5731 5735
5758 5756 5754 5751 5749 5745 5742 5740 5739 5738 5735 5733 5732 5730 5728 5726 5724 5722 5721 5719 5718 5717 5715 5713 5711 5709 5709 5708 5707 5707 5707 5708 5709 5710 5712 5714 5717 5720
5742 5740 5737 5735 5733 5730 5726 5725 5724 5722 5719 5717 5716 5715 5713 5712 5710 5709 5707 5705 5704 5704 5702 5700 5698 5697 5696 5695 5694 5694 5694 5694 5695 5697 5699 5701 5703 5706
5725 5722 5720 5717 5714 5712 5710 5708 5706 5703 5701 5700 5700 5699 5698 5696 5695 5694 5693 5691 5690 5690 5688 5686 5685 5684 5683 5682 5682 5681 5681 5681 5682 5683 5685 5687 5690 5693
5706 5703 5701 5698 5695 5693 5691 5689 5686 5684 5683 5682 5682 5682 5681 5679 5678 5678 5677 5676 5675 5675 5674 5673 5671 5670 5669 5669 5669 5668 5668 5668 5669 5670 5672 5674 5677 5680
5685 5682 5680 5677 5673 5671 5669 5667 5666 5664 5663 5662 5662 5663 5662 5662 5661 5661 5660 5660 5660 5660 5660 5659 5658 5657 5656 5656 5656 5656 5656 5656 5656 5657 5659 5661 5664 5666
5662 5659 5657 5654 5651 5648 5646 5644 5643 5642 5642 5642 5642 5642 5643 5643 5643 5644 5644 5644 5644 5645 5645 5645 5644 5643 5643 5643 5643 5643 5643 5643 5643 5644 5646 5648 5651 5654
5638 5635 5632 5628 5626 5624 5622 5620 5620 5619 5619 5620 5620 5622 5623 5624 5625 5626 5626 5627 5628 5629 5630 5630 5630 5630 5630 5630 5631 5630 5630 5631 5631 5632 5633 5635 5638 5641
5613 5610 5607 5604 5601 5599 5598 5597 5597 5597 5597 5598 5599 5601 5602 5604 5606 5607 5609 5610 5612 5614 5614 5615 5615 5616 5616 5618 5618 5617 5618 5618 5619 5620 5621 5623 5626 5628
5591 5587 5584 5581 5579 5577 5576 5575 5575 5575 5576 5577 5579 5581 5583 5584 5586 5589 5592 5594 5596 5598 5600 5601 5601 5602 5603 5604 5605 5605 5605 5606 5607 5608 5609 5611 5613 5616
5572 5567 5563 5561 5558 5557 5556 5556 5556 5556 5557 5559 5561 5563 5565 5567 5570 5573 5576 5578 5581 5583 5585 5587 5588 5589 5589 5591 5592 5593 5593 5593 5594 5595 5597 5599 5601 5603
5554 5550 5546 5543 5541 5540 5540 5540 5540 5540 5542 5543 5545 5548 5550 5553 5555 5558 5561 5564 5567 5570 5572 5574 5575 5576 5577 5578 5579 5580 5581 5581 5582 5583 5585 5587 5588 5590
5540 5536 5533 5530 5528 5527 5526 5526 5526 5528 5529 5531 5533 5535 5538 5540 5543 5546 5549 5552 5555 5557 5559 5561 5562 5563 5565 5566 5567 5568 5569 5569 5570 5571 5573 5574 5576 5578